Regional Weather Roundup
Issued by NWS

Home | Current Version | Previous Version | Text Only | Print | Product List | Glossary On
Versions: 1 2 3 4 5 6 7 8 9 10 11 12 13 14 15 16 17 18 19 20 21 22 23 24 25 26 27 28 29 30 31 32 33 34 35 36 37 38 39 40 41 42 43 44 45 46 47 48 49 50
000
ASUS42 KTBW 291810
RWRFL
FLORIDA REGIONAL WEATHER ROUNDUP
NATIONAL WEATHER SERVICE TAMPA BAY RUSKIN FL
100 PM EST THU JAN 29 2015

NOTE: "FAIR" INDICATES FEW OR NO CLOUDS BELOW 12,000 FEET WITH NO
SIGNIFICANT WEATHER AND/OR OBSTRUCTIONS TO VISIBILITY.


FLZ001>010-012>015-112-114-115-291900-
PANHANDLE FLORIDA

CITY           SKY/WX    TMP DP  RH WIND       PRES   REMARKS
PENSACOLA      MOSUNNY   66  50  56 S13       30.27F
PENSACOLA NAS  MOSUNNY   68  52  56 S12       30.27F
MILTON NAS     MOSUNNY   67  50  54 S16G25    30.27F
CRESTVIEW      MOSUNNY   64  51  62 S13G18    30.29F
DUKE FIELD     MOSUNNY   64  51  62 S14       30.27F
VALPARAISO     SUNNY     63  53  67 SE9       30.28F
MARY ESTHER    SUNNY     64  48  56 SE8       30.27F
TRI COUNTY     FAIR      62  45  53 S8        30.28F
PANAMA CITY    FAIR      61  49  64 SE14G20   30.29F
TYNDALL AFB    SUNNY     62  48  60 SE16      30.29F
APALACHICOLA   SUNNY     62  45  53 S10       30.30F

STATION/POSITION SKY/WX   TEMP    WIND        PRES    WAVE   SWELL
                          AIR SEA DIR/SP/G            HT/PER HT/PER
                          (F)     (DEG/KT/KT) (MB)    (FT/S) (FT/S)
30.1N   87.6W              64 63  180/  8/ 10 1024.7F   2/ 4   2/ 6
29.2N   88.2W              66 69  180/  8/ 12 1025.4S   2/ 4   2/ 4
28.7N   86.0W              63 70  160/ 12/ 16 1025.2F   2/ 5
PANAMA CITY BEAC           58 60  140/ 13/ 15 1025.2F
CAPE SAN BLAS    NOT AVBL
TOWER C                    57     120/  9/ 10 1025.6F
28.5N   84.5W              60 68  130/ 10/ 12 1025.5F   3/ 5   2/ 5

$$
FLZ011-016>038-118-127-128-134-139-239-291900-
NORTH FLORIDA

CITY           SKY/WX    TMP DP  RH WIND       PRES   REMARKS
MARIANNA       SUNNY     62  42  47 S7        30.28F
TALLAHASSEE    MOSUNNY   61  30  31 SE9       30.29F
PERRY          SUNNY     62  36  37 S6        30.31F
CROSS CITY       N/A     65  43  44 SE6       30.28F
LAKE CITY      FAIR      63  45  51 S8        30.29F
GAINESVILLE    SUNNY     63  45  51 SE8       30.28F
MAYPORT NAS    PTSUNNY   59  47  64 NE8       30.30F
JACKSONVILLE   PTSUNNY   63  44  50 VRB3      30.29F
JAX NAS        MOSUNNY   63  44  50 N3        30.30F
JAX CRAIG      SUNNY     62  46  55 SE3       30.29F
JAX CECIL      SUNNY     63  45  51 VRB6      30.30F
FERNANDINA BEA FAIR      64  46  52 E7        30.29F
ST AUGUSTINE   SUNNY     60  49  66 NE8       30.30F

STATION/POSITION SKY/WX   TEMP    WIND        PRES    WAVE   SWELL
                          AIR SEA DIR/SP/G            HT/PER HT/PER
                          (F)     (DEG/KT/KT) (MB)    (FT/S) (FT/S)
SHELL POINT                53     130/  6/  8   N/A
KEATON BEACH               54     230/  6/  7 1026.2F
CEDAR KEY                  56     110/  3/  3 1027.5F
FERNANDINA                 54 54  360/  6/  8 1025.5F
MAYPORT                    55 57   60/  8/  9 1026.2F
31.4N   80.9W              53 54   10/  8/  8 1026.5F   3/ 7   3/ 7
ST AUGUSTINE               56     360/ 10/ 11 1026.4F

$$
FLZ040-043>046-052-053-057-058-063-144-291900-
INTERIOR CENTRAL FLORIDA

CITY           SKY/WX    TMP DP  RH WIND       PRES   REMARKS
OCALA          SUNNY     64  45  48 E58       30.30F
THE VILLAGES     N/A     66  46  48 S6G12     30.19F
LEESBURG       SUNNY     67  46  47 NE7       30.30F
SANFORD        MOSUNNY   67  47  48 MISG      30.29F
ORLANDO EXEC   SUNNY     69  47  45 E6        30.28F
ORLANDO INTL   MOSUNNY   69  48  47 VRB6      30.28F
KISSIMMEE      SUNNY     66  48  52 SE6       30.28F
WINTER HAVEN   SUNNY     68  47  46 E7        30.29F
LAKELAND       SUNNY     68  46  45 E9        30.28F
OKEECHOBEE     MOSUNNY   70  50  49 E7        30.25F

$$
FLZ041-047-054-059-064-141-147-291900-
EAST CENTRAL FLORIDA

CITY           SKY/WX    TMP DP  RH WIND       PRES   REMARKS
ORMOND BEACH   SUNNY     64  46  52 E6        30.29F
DAYTONA BEACH  MOSUNNY   68  47  46 E7        30.30F
DELAND         PTCLDY   N/A N/A N/A CALM      30.29F
NEW SMYRNA BEA MOSUNNY   68  45  42 E6        30.31F
JFK SPACE CTR  MOSUNNY   69  49  47 VRB6      30.27F
TITUSVILLE     MOSUNNY   66  46  48 E7        30.29F
CAPE CANAVERAL SUNNY     68  49  50 VRB7      30.27F
PATRICK AFB    SUNNY     67  49  51 NE7       30.27F
MELBOURNE      SUNNY     69  48  47 E9        30.27F
VERO BEACH     SUNNY     70  47  43 E8        30.25F
FT PIERCE      SUNNY     71  49  45 VRB7      30.24F
STUART         PTSUNNY   68  50  52 E9        30.25

STATION/POSITION SKY/WX   TEMP    WIND        PRES    WAVE   SWELL
                          AIR SEA DIR/SP/G            HT/PER HT/PER
                          (F)     (DEG/KT/KT) (MB)    (FT/S) (FT/S)
28.5N   80.2W              64 69   70/  6/ 12 1025.8F
28.9N   78.5W              64 75   70/  6/ 10 1025.3F   6/10   7/10
TRIDENT PIER               69 62   80/  4/  8 1024.9F
28.4N   80.5W                 63                N/A     3/13   2/13
27.6N   80.2W                 67                N/A     4/13   3/13

$$
FLZ050-056-061-142-242-148-248-149-249-151-251-155-255-
160-260-291900-
WEST CENTRAL FLORIDA

CITY           SKY/WX    TMP DP  RH WIND       PRES   REMARKS
CRYSTAL RIVER  FAIR      66  43  42 E3        30.29F
INVERNESS      FAIR      66  45  45 SE3       30.29F
BROOKSVILLE    SUNNY     66  47  50 VRB5      30.29F
ZEPHYRHILLS    FAIR      68  43  40 E6        30.29F
CLEARWATER     SUNNY     66  49  54 E6        30.28F
TAMPA INTL     SUNNY     67  43  41 VRB6      30.28F
TAMPA EXEC     SUNNY     70  45  40 E3        30.29F
PLANT CITY       N/A    N/A N/A N/A MISG        N/A
MACDILL AFB    SUNNY     69  48  46 E8        30.28F
PETER O KNIGHT SUNNY     70  50  49 SW3       30.28F
ST PETERSBURG  SUNNY     64  50  60 NE7       30.26F
SARASOTA       SUNNY     69  44  40 NE6       30.25F
VENICE         FAIR      70  45  40 SE7       30.26F

STATION/POSITION SKY/WX   TEMP    WIND        PRES    WAVE   SWELL
                          AIR SEA DIR/SP/G            HT/PER HT/PER
                          (F)     (DEG/KT/KT) (MB)    (FT/S) (FT/S)
CEDAR KEY                  56     110/  3/  3 1027.5F
28.5N   84.5W              60 68  130/ 10/ 12 1025.5F   3/ 5   2/ 5
27.3N   84.3W                 72                N/A     4/ 6
CLEARWATER BEACH           64 60  110/  6/  8 1025.2F
MIDDLE TAMPA BAY           61      30/  9/ 10 1025.5F
VENICE                     68 62   20/  3/  5 1024.0F

$$
FLZ066-069-070-075>078-162-262-165-265-291900-
SOUTHWEST FLORIDA AND KEYS

CITY           SKY/WX    TMP DP  RH WIND       PRES   REMARKS
PUNTA GORDA    SUNNY     70  43  37 E8        30.25F
FT MYERS       SUNNY     71  44  37 SE10      30.22F
SOUTHWEST INTL SUNNY     71  46  40 E13G22    30.23F
NAPLES         SUNNY     73  46  38 NE10G18   30.22F
MARCO ISLAND   CLEAR    N/A N/A N/A E12       30.21F
IMMOKALEE      CLEAR     73  48  40 E9        30.25F
MARATHON       SUNNY     70  56  61 NE15      30.21F
KEY WEST NAS   MOSUNNY   72  53  51 E13       30.21F
KEY WEST INTL  SUNNY     71  56  58 NE8       30.21F

STATION/POSITION SKY/WX   TEMP    WIND        PRES    WAVE   SWELL
                          AIR SEA DIR/SP/G            HT/PER HT/PER
                          (F)     (DEG/KT/KT) (MB)    (FT/S) (FT/S)
VENICE                     68 62   20/  3/  5 1024.0F
NAPLES                     69 72   90/  5/ 12 1023.9F
26.0N   85.6W              66 72   90/ 10/ 14 1024.6F   3/ 5   3/ 5
DRY TORTUGAS               66      70/ 18/ 20 1023.8F
NW FL BAY                  67      50/ 10/ 12 1024.8F
SAND KEY                   67      60/ 17/ 19 1022.8F
SOMBRERO KEY               67      40/ 16/ 18 1023.1F
LONG KEY                   64 64  360/ 10/ 11 1024.9F
MOLASSES REEF              68 76   60/ 14/ 16 1022.9F

$$
FLZ067-068-071>074-168-172>174-291900-
SOUTHEAST FLORIDA

CITY           SKY/WX    TMP DP  RH WIND       PRES   REMARKS
W PALM BEACH   PTSUNNY   70  49  47 E8G20     30.23F
FT LAUDER-EXEC MOSUNNY   71  47  42 E14       30.24F
FT LAUDERDALE  PTSUNNY   70  49  47 E14G24    30.23F
POMPANO BEACH  MOSUNNY   72  47  40 E12       30.24F
PEMBROKE PINES MOSUNNY   70  47  43 E16       30.25F
OPA LOCKA      PTSUNNY   70  48  45 E15G21    30.24F
MIAMI          PTSUNNY   72  49  44 E16       30.24F
WEST KENDALL   PTSUNNY   72  50  45 E16       30.24F
HOMESTEAD      SUNNY     71  50  47 NE13G20   30.23F

STATION/POSITION SKY/WX   TEMP    WIND        PRES    WAVE   SWELL
                          AIR SEA DIR/SP/G            HT/PER HT/PER
                          (F)     (DEG/KT/KT) (MB)    (FT/S) (FT/S)
PORT EVERGLADES            68      80/  9/ 14 1023.7
VIRGINIA KEY               67 66   60/ 12/ 14 1024.4F
LAKE WORTH                 67 74   90/ 10/ 14 1023.6F


USA.gov is the U.S. government's official web portal to all federal, state and local government web resources and services.